Wind_Speed
72 73 77 70 71 71 74 72 69 67 66 66 63 59 64 69 75 73 63 63 55 60 60 54 59 61 60 55 54 49 49 46 45 46 42 44 39 44 44 41 37 46 39 39 40
77 72 73 75 71 70 76 77 72 70 72 73 69 65 65 64 68 76 71 73 77 66 68 63 58 57 58 62 53 54 52 55 50 49 46 46 40 45 45 42 43 43 41 39 44
87 79 81 80 82 81 79 80 81 78 74 76 77 74 70 69 70 69 71 65 75 66 67 60 64 58 61 63 59 60 56 55 58 50 45 48 48 47 47 45 41 44 48 45 48
85 87 86 86 89 89 84 84 83 84 83 78 77 76 75 74 69 73 75 70 72 83 77 73 66 70 68 59 62 63 59 55 50 49 54 51 52 51 50 49 47 51 47 47 47
93 94 95 91 93 88 87 83 87 89 89 84 84 79 74 81 75 74 74 79 68 82 83 82 74 67 62 63 66 65 63 64 64 57 57 54 55 51 53 51 53 49 50 48 51
103 102 101 97 100 96 95 86 89 89 85 85 85 84 83 84 72 75 75 76 73 76 79 87 83 76 75 72 65 68 68 64 69 66 64 56 59 59 55 56 53 51 47 47 50
105 106 102 101 100 100 95 96 92 87 84 88 82 86 87 80 79 76 73 77 76 79 84 84 92 87 85 76 78 78 68 73 68 63 60 61 56 64 51 58 58 54 51 48 48
110 104 103 97 100 98 98 96 95 88 90 84 82 85 87 82 82 73 72 78 80 77 81 84 86 89 88 83 82 77 69 72 68 68 66 66 71 73 62 59 56 53 52 51 54
111 107 105 104 97 100 101 99 94 93 88 88 84 83 84 82 79 76 72 68 78 79 85 81 88 91 88 84 82 77 79 77 76 72 72 72 78 74 64 63 61 58 59 63 60
111 112 105 103 101 102 103 104 99 95 91 91 86 86 82 84 85 78 77 71 73 80 78 83 77 85 90 90 87 85 86 80 79 80 75 70 63 66 64 63 60 60 63 61 60
114 112 112 106 108 107 102 104 103 97 95 92 91 88 86 86 86 81 78 76 73 82 74 70 80 72 81 84 85 89 94 89 85 84 81 74 68 72 68 68 67 65 68 65 67
108 110 113 111 110 108 107 103 103 102 99 102 99 92 88 89 88 85 81 76 75 80 77 74 67 80 82 81 85 88 88 87 85 88 84 79 74 72 71 68 67 68 72 69 65
87 102 107 111 111 108 105 106 107 106 105 102 101 98 94 90 89 88 85 79 79 82 88 75 77 73 84 87 81 82 83 85 88 89 86 85 71 72 75 71 69 67 65 64 68
63 70 83 93 98 100 102 108 109 106 106 103 101 100 95 91 91 88 85 81 80 83 93 86 80 78 76 79 86 83 84 85 85 84 84 86 79 74 74 71 72 73 70 67 67
64 61 65 63 72 80 92 98 100 103 105 100 96 94 94 93 87 89 85 84 81 86 90 88 81 77 76 82 79 81 82 85 87 88 87 80 73 70 72 71 72 72 72 66 69
63 59 61 54 60 67 75 81 90 96 95 93 92 91 91 90 89 90 90 87 87 90 87 88 84 81 79 80 88 86 80 84 83 83 81 78 79 66 74 77 78 79 79 78 76
65 65 69 64 62 66 70 75 80 84 81 77 76 82 87 89 90 91 88 89 89 88 87 80 76 75 77 78 84 83 88 88 86 86 82 84 84 66 72 75 75 76 75 75 74
76 76 74 66 68 64 65 69 75 72 76 76 76 79 84 90 90 91 95 96 95 91 84 85 81 74 68 72 79 86 91 91 88 85 82 83 77 65 66 67 71 75 77 76 75
80 78 77 71 69 64 64 66 60 60 65 69 72 76 78 80 84 87 87 89 94 92 91 88 80 83 76 78 83 82 84 87 93 91 90 86 75 74 72 72 74 75 75 77 77
76 75 75 69 70 71 67 63 61 60 62 64 68 69 74 79 79 81 89 89 89 95 91 95 90 87 86 88 80 80 83 86 86 85 86 80 77 73 75 76 78 80 80 80 80
74 82 79 77 75 72 68 65 63 58 61 67 71 73 74 77 80 85 87 87 90 91 93 95 93 91 92 86 82 89 80 78 83 88 87 81 78 75 77 77 80 82 81 82 81
88 91 90 83 80 78 67 69 67 58 60 64 67 74 75 86 84 87 83 83 87 92 94 89 93 97 93 91 87 91 87 94 94 86 89 93 88 81 82 80 81 84 85 83 84
99 97 92 90 93 94 86 79 72 64 61 65 69 76 80 81 91 88 84 85 85 91 89 98 96 97 96 94 91 87 88 90 91 93 94 95 80 86 83 84 88 90 90 89 87
110 112 106 96 96 91 84 85 78 72 69 66 68 69 76 83 85 84 85 85 89 92 94 90 95 100 95 94 92 92 96 96 95 99 92 93 84 82 80 82 84 84 82 81 85
102 104 99 94 93 96 84 90 83 81 78 74 70 71 70 72 77 86 89 90 91 92 99 95 92 90 95 100 102 97 96 97 102 95 98 83 90 86 88 89 87 88 89 88 88
103 97 98 95 93 90 87 83 86 84 84 81 77 74 76 75 77 80 88 93 99 95 96 101 99 96 97 97 99 102 100 98 99 101 104 101 94 94 96 97 97 96 93 92 90
110 105 97 93 94 93 90 90 85 82 81 82 79 80 83 81 80 78 87 90 94 93 98 101 101 103 103 101 105 106 92 97 97 97 98 98 92 100 102 101 102 100 96 94 92
Wind_Direction
225 226 222 224 223 222 217 227 226 227 230 228 223 225 220 221 223 221 223 221 223 239 240 248 246 244 243 241 241 250 245 242 251 252 265 270 273 275 278 289 290 300 294 302 311
226 225 229 222 225 227 224 231 230 230 227 230 231 230 225 229 221 222 225 225 227 230 239 244 246 241 240 240 237 247 249 246 249 253 266 269 266 273 279 284 288 294 294 304 312
225 223 224 228 231 234 234 235 233 232 234 226 230 234 233 231 229 226 225 223 224 223 223 238 234 235 238 241 237 245 252 257 252 252 261 261 265 269 275 283 284 287 292 299 306
224 228 230 230 232 232 236 235 238 236 237 234 234 232 234 233 235 233 229 231 225 225 223 226 231 233 240 241 247 244 247 254 255 251 251 260 260 263 274 283 283 283 290 301 299
222 224 228 233 233 237 238 237 238 242 240 237 237 235 237 236 240 231 236 232 232 225 229 226 231 240 232 235 240 247 242 250 257 253 256 258 262 269 272 276 279 282 290 294 297
222 224 231 233 234 236 238 240 240 241 240 240 238 235 238 237 240 238 238 236 238 232 233 228 231 231 231 235 239 246 243 251 253 252 258 253 256 264 268 275 273 281 287 287 292
221 223 227 233 234 235 235 237 238 241 242 241 239 236 240 241 239 239 241 238 239 236 237 231 231 233 236 237 239 241 248 251 247 254 252 260 255 257 266 265 276 280 280 281 292
224 222 226 229 233 234 236 236 237 237 240 242 241 239 238 239 239 241 241 238 236 236 236 235 233 233 237 238 239 243 242 245 251 253 250 255 261 261 266 261 269 278 273 278 288
223 223 224 227 232 233 235 237 236 238 239 242 242 242 240 240 240 239 241 240 233 233 235 235 234 236 234 235 237 241 246 250 249 249 253 250 257 263 264 259 267 274 274 281 282
225 223 225 228 230 233 233 235 238 238 238 242 240 243 244 242 242 240 240 240 232 227 231 235 232 236 236 233 237 240 239 244 243 249 255 255 258 258 258 263 263 273 277 276 281
224 226 226 227 230 233 235 235 237 239 239 241 242 240 242 242 243 243 243 243 237 227 225 228 232 231 233 232 234 238 238 242 247 252 251 252 257 258 263 261 262 268 276 273 277
223 226 227 229 230 233 236 238 238 237 239 237 238 239 240 240 241 241 242 243 238 234 220 222 230 233 231 233 234 238 239 242 245 248 248 250 254 258 259 258 262 268 270 268 270
223 227 228 231 232 234 235 238 238 239 239 239 239 239 238 237 239 240 241 239 235 230 222 220 221 230 235 232 234 236 238 240 244 247 249 252 252 255 259 257 259 265 260 262 271
221 221 225 227 230 231 232 236 238 238 238 238 240 237 237 237 237 238 239 239 235 231 228 226 222 229 229 235 236 239 240 241 245 248 249 252 252 254 254 254 259 258 260 265 272
226 224 227 223 223 224 227 230 233 236 237 236 236 235 232 233 235 235 234 235 233 231 231 229 228 228 233 234 231 231 236 240 244 245 248 248 247 248 251 253 255 258 266 264 269
225 213 221 222 227 223 226 227 230 232 235 234 233 233 232 232 233 234 234 232 228 229 230 231 233 230 232 235 238 236 236 238 241 242 242 245 246 239 250 255 258 262 264 262 265
216 220 223 231 224 223 226 228 228 229 230 231 230 231 231 231 231 231 233 233 229 230 229 233 232 238 236 239 236 239 243 241 239 241 242 243 245 239 249 256 259 262 261 261 262
225 228 230 230 223 221 225 229 228 225 229 230 229 228 226 228 229 231 231 228 228 227 229 227 229 232 236 242 244 242 240 239 240 241 242 242 246 244 239 250 259 263 265 266 265
224 223 230 229 227 221 226 233 229 225 228 228 226 226 227 228 232 231 231 230 228 229 230 228 229 232 230 239 243 245 245 246 246 244 244 245 245 253 255 253 254 257 261 264 265
221 229 234 231 230 223 227 232 229 226 223 223 222 223 223 224 228 229 228 229 228 231 233 229 228 227 231 234 236 244 246 247 251 250 250 248 250 253 254 255 254 252 256 259 261
222 227 233 232 229 224 225 227 227 226 223 223 224 223 224 222 223 224 227 228 228 229 231 233 232 232 228 234 241 242 239 245 249 251 252 249 246 245 249 252 253 253 252 256 261
223 226 231 230 226 231 228 229 224 224 224 227 226 227 223 221 225 226 228 228 228 230 232 231 233 230 232 232 239 240 242 241 244 248 249 248 243 247 245 247 250 252 254 254 255
224 225 225 227 234 238 239 231 225 222 225 228 227 227 224 224 225 228 229 228 231 231 233 234 233 234 234 235 239 245 246 250 252 252 253 254 254 254 255 255 254 257 256 258 260
225 227 229 227 234 236 235 229 224 223 225 226 227 228 230 229 226 227 229 229 231 231 232 236 239 235 237 239 242 244 245 246 248 250 253 254 256 256 258 260 260 262 263 262 262
215 221 221 223 228 234 232 226 226 227 226 228 229 231 231 232 235 232 230 229 231 233 232 236 238 239 238 241 241 241 243 247 250 252 255 257 258 258 258 259 261 263 263 264 265
212 217 222 226 224 228 233 232 229 229 231 233 230 231 231 234 237 236 233 232 231 233 235 235 236 239 238 240 242 244 245 249 252 255 255 255 256 259 260 259 260 262 266 268 268
212 216 217 223 225 225 229 236 238 237 231 231 235 233 234 235 237 236 235 235 237 237 238 237 239 241 241 242 243 244 247 248 251 253 254 257 258 259 262 264 265 265 265 267 266
Height
10618 10626 10636 10643 10652 10659 10667 10674 10681 10689 10697 10703 10710 10716 10724 10729 10734 10740 10744 10752 10755 10763 10768 10772 10778 10783 10790 10795 10799 10803 10808 10810 10812 10814 10818 10822 10822 10822 10825 10827 10824 10824 10823 10824 10824
10603 10613 10622 10630 10638 10646 10653 10659 10667 10674 10683 10691 10697 10705 10712 10718 10723 10728 10736 10739 10746 10753 10760 10764 10768 10773 10780 10786 10792 10797 10797 10801 10804 10808 10810 10816 10818 10817 10818 10822 10822 10819 10817 10820 10820
10587 10596 10606 10616 10623 10630 10637 10645 10652 10660 10668 10676 10685 10693 10699 10705 10710 10719 10725 10730 10734 10742 10748 10751 10757 10764 10769 10776 10783 10787 10788 10792 10796 10801 10805 10809 10812 10813 10813 10815 10816 10815 10812 10814 10815
10572 10582 10589 10598 10607 10616 10624 10632 10637 10646 10655 10663 10671 10679 10687 10694 10700 10707 10712 10719 10724 10729 10735 10737 10744 10753 10759 10765 10773 10777 10780 10784 10788 10793 10797 10802 10806 10808 10810 10810 10811 10812 10810 10808 10809
10556 10566 10573 10583 10592 10602 10609 10618 10624 10629 10640 10649 10657 10665 10673 10681 10686 10694 10700 10706 10712 10718 10722 10729 10734 10741 10748 10757 10761 10766 10771 10777 10780 10785 10790 10795 10797 10797 10802 10803 10804 10804 10805 10804 10803
10534 10546 10557 10566 10576 10585 10593 10601 10609 10615 10624 10634 10642 10651 10659 10665 10673 10681 10687 10692 10699 10706 10711 10718 10724 10730 10738 10746 10750 10756 10762 10768 10771 10776 10782 10787 10791 10788 10794 10797 10794 10797 10800 10799 10798
10514 10527 10540 10548 10557 10568 10577 10587 10594 10602 10610 10619 10628 10638 10645 10649 10660 10667 10672 10679 10685 10692 10698 10706 10713 10720 10727 10735 10741 10745 10751 10760 10764 10767 10773 10776 10780 10777 10792 10788 10786 10790 10791 10792 10792
10494 10506 10520 10530 10541 10548 10559 10568 10577 10588 10596 10602 10613 10624 10634 10638 10646 10653 10659 10665 10672 10676 10684 10694 10701 10709 10716 10725 10729 10734 10740 10748 10753 10756 10762 10766 10767 10768 10779 10782 10781 10781 10782 10782 10784
10473 10487 10499 10510 10520 10531 10542 10551 10561 10569 10580 10587 10598 10610 10617 10625 10633 10638 10644 10651 10658 10664 10671 10677 10689 10698 10704 10713 10717 10724 10732 10735 10737 10742 10749 10754 10756 10762 10766 10773 10774 10774 10773 10773 10774
10454 10468 10479 10489 10501 10512 10523 10533 10544 10555 10564 10572 10584 10595 10609 10613 10617 10624 10631 10638 10643 10652 10656 10664 10673 10686 10693 10701 10708 10709 10711 10712 10717 10727 10740 10749 10749 10749 10757 10763 10766 10764 10763 10762 10763
10435 10450 10462 10473 10484 10495 10506 10518 10531 10541 10555 10564 10573 10580 10588 10592 10601 10608 10615 10622 10629 10639 10647 10652 10662 10675 10674 10677 10682 10687 10696 10702 10709 10718 10727 10734 10739 10739 10746 10753 10753 10755 10754 10751 10750
10418 10432 10446 10456 10468 10478 10490 10503 10514 10522 10528 10538 10550 10560 10570 10576 10581 10589 10598 10608 10616 10627 10632 10642 10654 10652 10658 10667 10674 10680 10686 10692 10695 10701 10709 10719 10730 10731 10737 10741 10742 10744 10743 10739 10738
10401 10413 10424 10436 10450 10466 10476 10479 10487 10498 10507 10518 10531 10542 10551 10558 10564 10575 10584 10595 10602 10609 10620 10628 10635 10635 10644 10652 10661 10667 10673 10675 10678 10685 10698 10708 10722 10723 10724 10732 10728 10729 10728 10728 10728
10388 10392 10404 10417 10435 10445 10457 10456 10464 10476 10484 10500 10513 10525 10535 10545 10552 10563 10571 10579 10588 10598 10604 10610 10624 10627 10636 10643 10648 10655 10657 10659 10666 10674 10685 10693 10711 10711 10711 10717 10717 10713 10715 10718 10721
10372 10382 10391 10407 10412 10422 10425 10432 10442 10454 10458 10480 10493 10506 10517 10527 10544 10544 10554 10562 10574 10582 10588 10605 10611 10614 10622 10629 10629 10638 10638 10644 10650 10658 10668 10682 10692 10700 10698 10700 10699 10703 10708 10708 10707
10360 10370 10379 10392 10397 10403 10406 10417 10425 10431 10445 10462 10477 10491 10500 10514 10525 10528 10536 10545 10556 10562 10574 10583 10594 10601 10610 10612 10616 10626 10627 10634 10639 10645 10659 10666 10671 10695 10679 10681 10687 10695 10695 10694 10693
10352 10360 10371 10377 10384 10390 10398 10400 10404 10415 10438 10452 10465 10475 10482 10493 10502 10508 10520 10531 10542 10552 10564 10575 10581 10589 10594 10597 10604 10612 10613 10615 10621 10630 10647 10645 10650 10687 10676 10675 10673 10674 10678 10679 10679
10339 10347 10356 10365 10371 10380 10384 10383 10391 10419 10426 10437 10447 10453 10463 10471 10480 10491 10499 10508 10523 10534 10544 10552 10562 10575 10582 10582 10585 10585 10589 10594 10603 10611 10626 10631 10652 10669 10669 10667 10664 10660 10656 10657 10662
10326 10334 10341 10350 10357 10367 10370 10368 10392 10404 10409 10419 10427 10435 10447 10457 10468 10477 10486 10500 10509 10521 10527 10534 10544 10555 10560 10562 10562 10570 10580 10589 10584 10596 10607 10621 10644 10650 10651 10656 10652 10646 10641 10638 10640
10313 10319 10329 10338 10340 10351 10354 10365 10377 10388 10396 10404 10414 10422 10433 10441 10450 10459 10468 10487 10497 10507 10510 10516 10521 10531 10538 10541 10543 10555 10567 10566 10570 10584 10592 10612 10621 10634 10632 10630 10633 10635 10627 10624 10624
10299 10305 10312 10323 10327 10330 10342 10356 10365 10376 10383 10391 10402 10410 10419 10428 10436 10446 10457 10469 10478 10487 10490 10497 10505 10516 10518 10530 10541 10540 10547 10550 10555 10560 10573 10587 10600 10609 10609 10610 10610 10612 10616 10614 10612
10283 10292 10299 10305 10310 10319 10332 10344 10356 10365 10371 10380 10388 10396 10405 10413 10421 10432 10445 10452 10462 10470 10474 10483 10487 10497 10508 10513 10516 10523 10532 10534 10535 10550 10550 10557 10584 10590 10591 10590 10591 10592 10594 10597 10598
10266 10276 10284 10290 10296 10305 10319 10330 10343 10352 10361 10367 10374 10381 10390 10399 10408 10418 10427 10435 10445 10452 10458 10467 10472 10485 10491 10499 10509 10515 10523 10524 10525 10527 10540 10540 10580 10570 10571 10574 10574 10573 10576 10581 10583
10252 10258 10268 10275 10283 10292 10305 10315 10329 10341 10347 10354 10362 10369 10378 10386 10394 10403 10412 10421 10429 10436 10442 10446 10455 10469 10485 10488 10489 10492 10499 10499 10498 10503 10529 10533 10548 10554 10556 10555 10554 10555 10558 10561 10563
10234 10241 10254 10263 10272 10281 10293 10301 10313 10324 10333 10338 10349 10358 10364 10372 10379 10387 10395 10405 10412 10419 10425 10433 10442 10451 10460 10463 10469 10475 10481 10482 10485 10509 10499 10535 10523 10530 10532 10533 10535 10538 10538 10540 10543
10218 10230 10238 10248 10259 10266 10273 10286 10298 10309 10318 10324 10334 10343 10351 10358 10363 10371 10379 10386 10394 10400 10405 10414 10424 10429 10436 10440 10447 10453 10461 10470 10480 10486 10491 10499 10509 10505 10503 10507 10514 10518 10522 10525 10526
10201 10211 10221 10231 10238 10250 10263 10271 10278 10287 10297 10308 10316 10325 10330 10338 10343 10351 10358 10365 10373 10381 10389 10397 10404 10408 10416 10424 10423 10426 10461 10455 10460 10466 10469 10475 10491 10482 10482 10486 10492 10497 10501 10503 10503